Location: Albany
(35.0000°S, 118.0000°E)
Time: 06:37:15
(UTC-04:00)

SJ-6B - Visible Passes

Search period start: 25 July 2014 00:00
Search period end: 04 August 2014 00:00
Orbit: 520 x 600 km, 97.8° (Epoch: 23 July)

Date Brightness Start Highest point End Pass type
(mag) Time Alt. Az. Time Alt. Az. Time Alt. Az.
25 Jul 3.2 06:27:00 10° S 06:31:15 71° WSW 06:35:22 10° NNW visible
25 Jul 4.1 17:09:44 10° NE 17:13:35 42° ESE 17:17:34 10° S visible
26 Jul 3.2 06:25:44 10° S 06:29:59 74° WSW 06:34:05 10° NNW visible
26 Jul 4.2 17:08:29 10° NE 17:12:19 40° ESE 17:16:16 10° S visible
27 Jul 3.1 06:24:27 10° S 06:28:42 77° WSW 06:32:48 10° NNW visible
27 Jul 4.3 17:07:13 10° NE 17:11:02 39° ESE 17:14:59 10° S visible
28 Jul 3.1 06:23:11 10° S 06:27:26 80° WSW 06:31:31 10° NNW visible
28 Jul 4.4 17:05:57 10° NE 17:09:46 38° ESE 17:13:41 10° S visible
29 Jul 3.0 06:21:54 10° S 06:26:09 83° WSW 06:30:14 10° NNW visible
29 Jul 4.4 17:04:42 10° NE 17:08:29 36° ESE 17:12:23 10° S visible
30 Jul 3.0 06:20:38 10° S 06:24:52 86° WSW 06:28:56 10° NNW visible
30 Jul 4.5 17:03:26 10° NE 17:07:13 35° ESE 17:11:05 10° S visible
31 Jul 2.9 06:19:21 10° SSE 06:23:34 90° WSW 06:27:38 10° NNW visible
31 Jul 4.6 17:02:11 10° NE 17:05:56 34° ESE 17:09:47 10° S visible
01 Aug 2.9 06:18:04 10° SSE 06:22:17 87° ENE 06:26:20 10° NNW visible
01 Aug 4.7 17:00:55 10° NE 17:04:39 33° ESE 17:08:28 10° S visible
01 Aug 4.5 18:36:54 10° NW 18:39:36 17° W 18:42:21 10° SW visible
02 Aug 2.9 06:16:47 10° SSE 06:21:00 84° ENE 06:25:02 10° N visible
02 Aug 4.7 16:59:40 10° NE 17:03:22 32° ESE 17:07:10 10° S visible
03 Aug 2.8 06:15:30 10° SSE 06:19:42 80° ENE 06:23:43 10° N visible
03 Aug 4.8 16:58:25 10° NE 17:02:05 31° ESE 17:05:51 10° S visible
